Location: Omaha
(41.2590°N, 95.9380°W)
Time: 15:32:02
(UTC-05:00)

Vanguard 2 - All Passes

Search period start: 16 July 2018 00:00
Search period end: 26 July 2018 00:00
Orbit: 553 x 2939 km, 32.9° (Epoch: 16 July)

Date Brightness Start Highest point End Pass type
(mag) Time Alt. Az. Time Alt. Az. Time Alt. Az.
16 Jul - 01:30:37 10° W 01:46:22 47° SSW 01:57:30 10° SE visible
16 Jul - 03:46:15 10° W 03:54:53 19° SW 04:01:38 10° S visible
16 Jul - 17:13:19 10° SSE 17:20:27 15° SE 17:28:30 10° ESE daylight
16 Jul - 19:15:55 10° SSW 19:29:39 41° SSE 19:45:25 10° E daylight
16 Jul - 21:24:26 10° WSW 21:41:08 61° S 21:57:23 10° E visible
16 Jul - 23:35:50 10° W 23:53:22 62° S 00:07:21 10° ESE visible
17 Jul - 01:49:06 10° W 02:04:04 40° SSW 02:14:51 10° SSE visible
17 Jul - 04:06:52 10° WSW 04:12:07 13° SW 04:16:39 10° SSW visible
17 Jul - 17:28:23 10° S 17:37:45 21° SE 17:48:54 10° E daylight
17 Jul - 19:33:10 10° SW 19:47:24 47° SSE 20:03:52 10° E daylight
17 Jul - 21:42:22 10° WSW 21:59:15 64° S 22:15:31 10° E visible
17 Jul - 23:54:05 10° W 00:11:24 58° SSW 00:25:09 10° ESE visible
18 Jul - 02:07:45 10° W 02:21:38 33° SW 02:31:55 10° SSE visible
18 Jul - 17:44:30 10° S 17:55:08 28° SE 18:08:19 10° E daylight
18 Jul - 19:50:39 10° SW 20:05:16 53° SSE 20:22:12 10° E daylight
18 Jul - 22:00:24 10° WSW 22:17:24 65° S 22:33:35 10° ESE visible
19 Jul - 00:12:22 10° W 00:29:21 53° SSW 00:42:50 10° SE visible
19 Jul - 02:26:41 10° W 02:39:03 27° SW 02:48:37 10° S visible
19 Jul - 18:01:10 10° SSW 18:12:36 35° SE 18:27:14 10° E daylight
19 Jul - 20:08:20 10° WSW 20:23:15 58° SSE 20:40:28 10° E daylight
19 Jul - 22:18:31 10° W 22:35:33 64° S 22:51:36 10° ESE visible
20 Jul - 00:30:43 10° W 00:47:11 47° SSW 01:00:20 10° SE visible
20 Jul - 02:46:09 10° W 02:56:23 20° SW 03:04:43 10° S visible
20 Jul - 16:15:46 10° SSE 16:21:41 15° SE 16:28:39 10° ESE daylight
20 Jul - 18:18:14 10° SSW 18:30:12 41° SSE 18:45:51 10° E daylight
20 Jul - 20:26:10 10° WSW 20:41:18 62° S 20:58:41 10° E daylight
20 Jul - 22:36:40 10° W 22:53:40 61° SSW 23:09:32 10° ESE visible
21 Jul - 00:49:12 10° W 01:04:54 40° SSW 01:17:35 10° SSE visible
21 Jul - 03:06:46 10° WSW 03:13:39 14° SW 03:19:40 10° SSW visible
21 Jul - 16:31:03 10° S 16:38:56 21° SE 16:48:58 10° E daylight
21 Jul - 18:35:34 10° SW 18:47:55 48° SSE 19:04:19 10° E daylight
21 Jul - 20:44:06 10° WSW 20:59:25 64° S 21:16:50 10° E daylight
21 Jul - 22:54:52 10° W 23:11:43 57° SSW 23:27:19 10° SE visible
22 Jul - 01:07:52 10° W 01:22:30 33° SW 01:34:33 10° SSE visible
22 Jul - 16:47:20 10° S 16:56:16 27° SE 17:08:18 10° E daylight
22 Jul - 18:53:07 10° SW 19:05:46 54° SSE 19:22:40 10° E daylight
22 Jul - 21:02:07 10° WSW 21:17:34 64° S 21:34:57 10° ESE visible
22 Jul - 23:13:07 10° W 23:29:41 52° SSW 23:44:57 10° SE visible
23 Jul - 01:26:52 10° W 01:39:59 27° SW 01:51:05 10° S visible
23 Jul - 17:04:08 10° SSW 17:13:43 34° SE 17:27:10 10° E daylight
23 Jul - 19:10:50 10° WSW 19:23:43 59° SSE 19:40:58 10° E daylight
23 Jul - 21:20:10 10° W 21:35:42 63° S 21:52:59 10° ESE visible
23 Jul - 23:31:28 10° W 23:47:33 46° SSW 00:02:22 10° SE visible
24 Jul - 01:46:26 10° W 01:57:23 20° SW 02:06:58 10° S visible
24 Jul - 15:19:10 10° SSE 15:23:27 13° SE 15:28:28 10° ESE daylight
24 Jul - 17:21:17 10° SW 17:31:17 41° SSE 17:45:47 10° E daylight
24 Jul - 19:28:40 10° WSW 19:41:46 62° S 19:59:13 10° E daylight
24 Jul - 21:38:18 10° W 21:53:49 60° SSW 22:10:54 10° ESE visible
24 Jul - 23:49:57 10° W 00:05:19 39° SSW 00:19:32 10° SSE visible
25 Jul - 02:07:15 10° WSW 02:14:44 14° SW 02:21:35 10° SSW visible
25 Jul - 15:34:26 10° S 15:40:41 19° SE 15:48:50 10° E daylight
25 Jul - 17:38:41 10° SW 17:49:00 47° SSE 18:04:14 10° E daylight
25 Jul - 19:46:36 10° WSW 19:59:51 63° S 20:17:25 10° ESE daylight
25 Jul - 21:56:27 10° W 22:11:53 55° SSW 22:28:39 10° SE visible
